Regional Weather Roundup
Issued by NWS Burlington, VT

Home | Current Version | Previous Version | Text Only | Print | Product List | Glossary On
Versions: 1 2 3 4 5 6 7 8 9 10 11 12 13 14 15 16 17 18 19 20 21 22 23 24 25 26 27 28 29 30 31 32 33 34 35 36 37 38 39 40 41 42 43 44 45 46 47 48 49 50
000
ASUS41 KBTV 252110
RWRBTV
VERMONT REGIONAL WEATHER ROUNDUP
NATIONAL WEATHER SERVICE BURLINGTON VT
400 PM EST SUN JAN 25 2015

NOTE: "FAIR" INDICATES FEW OR NO CLOUDS BELOW 12,000 FEET WITH NO
SIGNIFICANT WEATHER AND/OR OBSTRUCTIONS TO VISIBILITY.

* THESE REPORTS ARE NOT UNDER NWS QUALITY CONTROL AND/OR DO NOT
  REPORT WEATHER SUCH AS PRECIPITATION AND FOG.

VTZ001>019-252200-
_____VERMONT_____


CITY           SKY/WX    TMP DP  RH WIND       PRES   REMARKS
BURLINGTON     PTCLDY    13  -2  51 N9        29.89R
MONTPELIER     CLEAR      9  -1  64 NW14G20   29.81R WCI  -7
MORRISVILLE    PTCLDY    10  -2  58 VRB5      29.85R
ST. JOHNSBURY*   N/A     12  -1  56 MISG      29.80R
MIDDLEBURY*    FAIR      17   1  48 N14G22    29.83R WCI   3
RUTLAND*       CLEAR     18   1  49 N9G17     29.79R
SPRINGFIELD    CLEAR     22   2  42 W10G23    29.78R WCI  11
HIGHGATE*      FAIR      10  -4  53 NW7       29.90R
NEWPORT*       FAIR       5  -5  63 SW9       29.81R
BENNINGTON     CLEAR     22   4  46 SW9G21    29.80R
SUTTON*          N/A      5 N/A N/A MISG        N/A

_____LAKE CHAMPLAIN_____


CITY           SKY/WX    TMP DP  RH WIND       PRES   REMARKS

$$

NYZ007-026>031-035-052-083-252200-
_____NORTHERN NEW YORK_____


CITY           SKY/WX    TMP DP  RH WIND       PRES   REMARKS
PLATTSBURGH    CLEAR     15  -4  42 NW10      29.89R WCI   2
SARANAC LAKE   CLEAR      6  -3  66 W6        29.78R
MASSENA        CLEAR      9  -6  50 W12       29.98R WCI  -6
OGDENSBURG*    CLEAR     14  -4  44 NW5       29.97R
POTSDAM*       CLEAR     10   0  61 W6        29.95R
WATERTOWN      CLEAR     14   0  53 SW12      30.00R WCI   0
FT DRUM        CLEAR     11  -6  45 W5        29.95R
ALBANY         PTCLDY    24   5  44 W14       29.88R WCI  12
GLENS FALLS    CLEAR     24   2  38 N14       29.83R WCI  12

$$
NHZ002-005-011-252200-
_____NEW HAMPSHIRE_____


CITY           SKY/WX    TMP DP  RH WIND       PRES   REMARKS
LEBANON        CLEAR     22   2  42 NW12      29.77R WCI  10
KEENE          CLEAR     28   1  31 NW7       29.76R
MT WASHINGTON  BLWGSNOW -11 -11 100 NW64G76     N/A  VSB 1/16WCI -50
PLYMOUTH       FAIR      21   7  55 NW10G20   29.76R WCI  10
WHITEFIELD     MOCLDY    12  -2  53 W14       29.75R WCI  -3

$$

_____REGIONAL QUEBEC LOCATIONS_____


CITY           SKY/WX    TMP DP  RH WIND       PRES   REMARKS
MONTREAL       PTCLDY    10  -4  52 W15G22    29.91R WCI  -6
QUEBEC CITY    PTCLDY    10  -2  56 W18       29.73R WCI  -8
SHERBROOKE     PTCLDY     7  -2  66 W12G18    29.79R WCI  -9

_____REGIONAL ONTARIO LOCATIONS_____


CITY           SKY/WX    TMP DP  RH WIND       PRES   REMARKS
OTTAWA         CLEAR      9  -4  56 W10       29.95R WCI  -6

______KEY______
VSB  - VISIBILITY IN MILES
WCI  - WIND CHILL INDEX
HX   - HEAT INDEX
$$
NNNN


USA.gov is the U.S. government's official web portal to all federal, state and local government web resources and services.